Location: Kearney
(40.6990°N, 99.0810°W)
Time: 09:19:25
(UTC-05:00)

SMAP - Pass Details

Date: 18 December 2017
Orbit: 682 x 683 km, 98.1° (Epoch: 24 April)

Event Time Altitude Azimuth Distance (km) Brightness Sun altitude
Rises 18:09:36 0° 169° (S) 3,028 6.5 -10.8°
Reaches altitude 10° 18:11:49 10° 171° (S) 2,117 5.8 -11.2°
Maximum altitude 18:16:27 76° 257° (WSW) 706 3.3 -12.0°
Drops below altitude 10° 18:21:07 10° 344° (NNW) 2,132 5.6 -12.8°
Sets 18:23:23 0° 346° (NNW) 3,052 6.4 -13.2°
